Regional Weather Roundup
Issued by NWS

Home | Current Version | Previous Version | Text Only | Print | Product List | Glossary Off
Versions: 1 2 3 4 5 6 7 8 9 10 11 12 13 14 15 16 17 18 19 20 21 22 23 24 25 26 27 28 29 30 31 32 33 34 35 36 37 38 39 40 41 42 43 44 45 46 47 48 49 50

000
ASUS43 KMKX 040900
RWRWI

WISCONSIN REGIONAL WEATHER ROUNDUP
NATIONAL WEATHER SERVICE MILWAUKEE/SULLIVAN WI
300 AM CST WED MAR 04 2015

NOTE: "FAIR" INDICATES FEW OR NO CLOUDS BELOW 12,000 FEET WITH NO
SIGNIFICANT WEATHER AND/OR OBSTRUCTIONS TO VISIBILITY.

WIZ001-002-006>008-014>016-023>028-041000-
NORTHWEST WISCONSIN

CITY           SKY/WX    TMP DP  RH WIND       PRES   REMARKS
SUPERIOR ARPT  CLEAR      0  -9  65 W7        30.00S WCI -13
ASHLAND        CLOUDY     1  -5  75 W10       29.95R WCI -15
HAYWARD        CLEAR     -1 -11  62 W8        29.95R WCI -15
SIREN          PTCLDY     0  -6  74 W7        30.02R WCI -13
CUMBERLAND     CLEAR      0  -8  71 W13       29.97S WCI -18
RICE LAKE      CLEAR      1  -6  71 W6        30.01R WCI -10
CHETEK         CLEAR      2  -5  71 W6        29.99S WCI  -9
LADYSMITH      CLEAR      3  -6  65 W13       29.96R WCI -14
EAU CLAIRE     CLEAR      4  -7  60 W13       30.02R WCI -13
MENOMONIE      CLEAR      5  -4  64 W9        30.03S WCI  -9
NEW RICHMOND   CLEAR      2  -6  68 W10       30.04R WCI -14
OSCEOLA        CLEAR      1  -6  71 W8        30.08R WCI -13
$$

WIZ003>005-009-010-017-018-041000-
NORTH CENTRAL WISCONSIN

CITY           SKY/WX    TMP DP  RH WIND       PRES   REMARKS
MANITOWISH WTR CLEAR      1  -7  70 NW7       29.82S WCI -12
ARBOR VITAE    CLEAR      4  -5  66 NW8       29.82S WCI  -9
WOODRUFF       CLEAR      4  -5  66 NW8       29.82S WCI  -9
RHINELANDER    PTCLDY     4  -5  66 W13       29.83R WCI -13
EAGLE RIVER    CLEAR      4  -6  64 W13G18    29.80R WCI -13
LAND O LAKES   FAIR       5  -2  74 W7        29.80R WCI  -7
PHILLIPS       CLEAR      1  -7  68 W7        29.88R WCI -11
TOMAHAWK       PTCLDY     3  -3  74 CALM      29.86R
MEDFORD        CLEAR      4  -4  66 W13       29.88R WCI -12
MERRILL        MOCLDY     8  -1  66 NW5       29.86R WCI   0
$$

WIZ029-030-035-036-043>047-041000-
CENTRAL WISCONSIN

CITY           SKY/WX    TMP DP  RH WIND       PRES   REMARKS
WAUSAU         CLEAR      8  -1  66 NW13      29.87R WCI  -8
MOSINEE        CLEAR      9   1  72 W14G21    29.89S WCI  -8
MARSHFIELD     CLEAR      6  -4  63 W13       29.92R WCI -10
STEVENS POINT  CLEAR      8   0  69 W10G16    29.90R WCI  -6
WAUPACA        CLEAR     15   5  63 W13G21    29.90R WCI   2
WAUTOMA        NOT AVBL
WISC RAPIDS    CLEAR      9  -1  64 NW15G23   29.95R WCI  -8
CAMP DOUGLAS   NOT AVBL
$$

WIZ011>013-019>022-031-037>040-048>050-041000-
NORTHEAST WISCONSIN

CITY           SKY/WX    TMP DP  RH WIND       PRES   REMARKS
ANTIGO         CLEAR      7  -1  69 W20       29.82R WCI -12
SHAWANO        CLEAR     17   2  53 NW9       29.87R WCI   5
OCONTO         CLEAR     16   5  62 NW7       29.84R WCI   6
STURGEON BAY   FAIR      16   3  57 NW13      29.85R WCI   2
GREEN BAY      CLEAR     15   5  64 W7        29.87R WCI   5
MANITOWOC      NOT AVBL
APPLETON       CLEAR     16   5  62 W16G22    29.87R WCI   0
CLINTONVILLE   CLEAR     16   5  62 W10       29.88R WCI   3
OSHKOSH        CLEAR     16   6  65 W12       29.90R WCI   3
$$

WIZ032>034-041-042-053>061-041000-
SOUTHWEST WISCONSIN

CITY           SKY/WX    TMP DP  RH WIND       PRES   REMARKS
LA CROSSE      CLEAR     10   0  63 NW13      30.04S WCI  -5
SPARTA         PTCLDY    11   2  66 W10G17    30.01R WCI  -2
VIROQUA        CLEAR      8   1  72 NW14      29.96R WCI  -9
BOSCOBEL       CLEAR     12   1  61 VRB6      30.02S WCI   3
PRAIRIE DU CHI PTCLDY    11   1  64 NW18G25   30.03F WCI  -7
PLATTEVILLE    CLEAR     11   6  79 W10       29.98R WCI  -3
$$

WIZ056-057-062-063-064-067-068-041000-
SOUTH CENTRAL WISCONSIN

CITY           SKY/WX    TMP DP  RH WIND       PRES   REMARKS
REEDSBURG      CLEAR     12   5  73 NW10G17   29.95R WCI  -1
BARABOO/DELLS  CLEAR     13   6  73 W10       29.94R WCI   0
LONE ROCK      NOT AVBL
MINERAL POINT  CLEAR     14   9  79 NW12G17   29.95R WCI   0
MADISON        CLEAR     16   7  67 NW10G18   29.94R WCI   4
MIDDLETON      PTCLDY    17   9  69 NW14      29.94R WCI   3
WATERTOWN      CLEAR     19  10  68 NW10      29.90R WCI   7
MONROE         CLEAR     14  10  85 W14       29.93R WCI  -1
JANESVILLE     CLEAR     19  12  73 W10       29.93R WCI   8
$$

WIZ051-052-058>065-066-070>072-041000-
SOUTHEAST WISCONSIN

CITY           SKY/WX    TMP DP  RH WIND       PRES   REMARKS
MILWAUKEE      PTCLDY    24  12  60 NW16G26   29.88R WCI  11
WAUKESHA       CLOUDY    21  12  68 NW12G18   29.89R WCI   9
MILWAUKEE/TIMM PTCLDY    23  10  58 NW18      29.88R WCI   9
RACINE         PTCLDY    26  16  65 NW7       29.89R WCI  18
BURLINGTON     MOCLDY    22  16  76 NW15      29.89R WCI   9
KENOSHA        MOCLDY    22  17  81 W7        29.88R WCI  13
FOND DU LAC    CLEAR     17   6  62 NW15      29.90R WCI   2
SHEBOYGAN      CLEAR     19   7  59 W13G21    29.88R WCI   6
WEST BEND      CLEAR     21  10  63 W10       29.88R WCI  10
JUNEAU         CLEAR     17   8  67 W10G17    29.91R WCI   4
$$

LSZ147-162-041000-
LAKE SUPERIOR

STATION/POSITION TIME  TEMP    WIND        PRES    WAVE
                       AIR SEA DIR/SP/G            HT/PER
                 (UTC) (F)     (DEG/KT/KT) (MB)    (FT/S)
DEVILS ISLAND    0800    7     290/ 24/ 29 1014.4R
PORT WING        0809    5     280/ 20/ 27 1014.6R
SAXON HARBOR     0800    6     240/  4/  9 1013.5R
$$

LMZ867-665-643>646-041000-
LAKE MICHIGAN

STATION/POSITION TIME  TEMP    WIND        PRES    WAVE
                       AIR SEA DIR/SP/G            HT/PER
                 (UTC) (F)     (DEG/KT/KT) (MB)    (FT/S)
NORTHPORT PIER   0803   19     280/  5/ 15 1009.1R
SISTER BAY       0813   13     310/ 11/ 12   N/A
KEWAUNEE LAKESHO 0800   22     300/ 10/ 16 1009.2R
SHEBOYGAN LAKESH 0800   23     290/ 12/ 16 1012.2R
PORT WASHINGTON  0700   27     280/  5/  9 1011.5R
MILWAUKEE LAKESH 0800   28     310/ 11/ 17   N/A
KENOSHA   LAKESH 0800   29     270/  5/  8 1011.5R
$$

TC  - TEMPERATURE IN CELSIUS
VSB - VISIBILITY IN STATUTE MILES
WCI - WIND CHILL INDEX
HX  - HEAT INDEX




USA.gov is the U.S. government's official web portal to all federal, state and local government web resources and services.